This is the latest recevied weather packets stored in our database for station/object IZ1UQG-2. If no packets are shown the sender has not sent any weather packets the latest 10 day(s).
| Time | Temp. | Humidity | Pressure | Rain* | Wind** | Luminosity | Snow |
|---|---|---|---|---|---|---|---|
| 1778015764 | 12.22° C | 91% | 1011.1 hPa | 0.25 mm | - | 0 W/m² | - |
| 1778015465 | 12.22° C | 91% | 1011.2 hPa | 0.51 mm | - | 0 W/m² | - |
| 1778015104 | 11.67° C | 91% | 1011.2 hPa | 0.51 mm | - | 0 W/m² | - |
| 1778014444 | 11.67° C | 91% | 1011.4 hPa | 0.51 mm | - | 0 W/m² | - |
| 1778013004 | 12.22° C | 91% | 1011.4 hPa | 1.02 mm | - | 0 W/m² | - |
| 1778012944 | 12.22° C | 91% | 1011.5 hPa | 1.02 mm | - | 0 W/m² | - |
| 1778012883 | 12.22° C | 91% | 1011.4 hPa | 1.02 mm | - | 0 W/m² | - |
| 1778011924 | 12.22° C | 91% | 1011.6 hPa | 0.51 mm | - | 0 W/m² | - |
| 1778011865 | 12.22° C | 91% | 1011.5 hPa | 0.51 mm | - | 0 W/m² | - |
| 1778011444 | 12.22° C | 90% | 1011.5 hPa | 0.76 mm | - | 0 W/m² | - |
| 1778010664 | 11.67° C | 90% | 1011.5 hPa | 0.51 mm | - | 0 W/m² | - |
| 1778010243 | 12.22° C | 90% | 1011.2 hPa | 0.51 mm | - | 0 W/m² | - |
| 1778009945 | 12.22° C | 90% | 1011.2 hPa | 0.51 mm | - | 0 W/m² | - |
| 1778009524 | 12.22° C | 90% | 1011.2 hPa | 0.25 mm | - | 0 W/m² | - |
| 1778009469 | 12.22° C | 90% | 1011.2 hPa | 0.25 mm | - | 0 W/m² | - |
| 1778009044 | 12.22° C | 90% | 1011.2 hPa | 0.25 mm | - | 0 W/m² | - |
| 1778008924 | 12.22° C | 90% | 1011.3 hPa | 0.25 mm | - | 0 W/m² | - |
| 1778008085 | 12.22° C | 90% | 1011.1 hPa | 0 mm | - | 0 W/m² | - |
| 1778007965 | 12.22° C | 89% | 1011.1 hPa | 0 mm | - | 0 W/m² | - |
| 1778007184 | 12.22° C | 89% | 1010.9 hPa | 0 mm | - | 0 W/m² | - |
| 1778007004 | 12.22° C | 89% | 1010.9 hPa | 0.25 mm | - | 0 W/m² | - |
| 1778006884 | 12.22° C | 89% | 1010.9 hPa | 0.25 mm | - | 0 W/m² | - |
| 1778005804 | 12.22° C | 89% | 1010.9 hPa | 0.25 mm | - | 0 W/m² | - |
| 1778005564 | 12.22° C | 89% | 1010.9 hPa | 0.25 mm | - | 0 W/m² | - |
| 1778005324 | 12.22° C | 89% | 1011 hPa | 0.25 mm | - | 0 W/m² | - |
* Rain latest hour (hover to see other rain measurements)
** Current wind speed in m/s (hover to see current wind gust speed)